This is the latest recevied weather packets stored in our database for station/object KN6CW-3. If no packets are shown the sender has not sent any weather packets the latest 10 day(s).
| Time | Temp. | Humidity | Pressure | Rain* | Wind** | Luminosity | Snow |
|---|---|---|---|---|---|---|---|
| 1778103660 | 14.44° C | 98% | 1005.8 hPa | 0 mm | - | 72 W/m² | - |
| 1778103359 | 14.44° C | 99% | 1005.7 hPa | 0 mm | - | 62 W/m² | - |
| 1778103059 | 14.44° C | 99% | 1005.6 hPa | 0 mm | - | 63 W/m² | - |
| 1778102759 | 14.44° C | 99% | 1005.5 hPa | 0 mm | - | 93 W/m² | - |
| 1778102459 | 13.89° C | 99% | 1005.4 hPa | 0 mm | - | 98 W/m² | - |
| 1778102158 | 13.89° C | 99% | 1005.4 hPa | 0 mm | - | 86 W/m² | - |
| 1778101859 | 14.44° C | 99% | 1005.4 hPa | 0 mm | - | 90 W/m² | - |
| 1778101558 | 13.89° C | 98% | 1005.3 hPa | 0 mm | - | 107 W/m² | - |
| 1778101258 | 13.89° C | 98% | 1005.3 hPa | 0 mm | - | 81 W/m² | - |
| 1778100957 | 13.89° C | 98% | 1005.4 hPa | 0 mm | - | 69 W/m² | - |
| 1778100657 | 13.89° C | 98% | 1005.3 hPa | 0 mm | - | 46 W/m² | - |
| 1778100357 | 13.89° C | 98% | 1005.2 hPa | 0 mm | - | 81 W/m² | - |
| 1778100056 | 13.89° C | 99% | 1005.3 hPa | 0 mm | - | 144 W/m² | - |
| 1778099756 | 13.89° C | 99% | 1005.3 hPa | 0 mm | - | 26 W/m² | - |
| 1778099456 | 13.89° C | 99% | 1005.3 hPa | 0.25 mm | - | 35 W/m² | - |
| 1778099155 | 13.89° C | 99% | 1005.2 hPa | 0.25 mm | - | 72 W/m² | - |
| 1778098855 | 13.89° C | 99% | 1005.3 hPa | 0.25 mm | - | 54 W/m² | - |
| 1778098555 | 13.89° C | 99% | 1005.1 hPa | 0.25 mm | - | 72 W/m² | - |
| 1778098254 | 13.89° C | 98% | 1005 hPa | 0.25 mm | - | 86 W/m² | - |
| 1778097954 | 13.89° C | 98% | 1005.2 hPa | 0.25 mm | - | 47 W/m² | - |
| 1778097654 | 13.89° C | 98% | 1005.2 hPa | 0.25 mm | - | 49 W/m² | - |
| 1778097354 | 13.89° C | 99% | 1005.3 hPa | 0.25 mm | - | 37 W/m² | - |
| 1778097054 | 13.89° C | 98% | 1005.2 hPa | 0.25 mm | - | 47 W/m² | - |
| 1778096753 | 13.89° C | 98% | 1005.2 hPa | 0.25 mm | - | 39 W/m² | - |
| 1778096453 | 13.89° C | 98% | 1005.3 hPa | 0.25 mm | - | 39 W/m² | - |
* Rain latest hour (hover to see other rain measurements)
** Current wind speed in m/s (hover to see current wind gust speed)